Temp
-25 -26 -26 -26 -27 -27 -28 -28 -28 -29 -29 -28 -27 -25 -26 -25 -25 -25 -25 -25 -25 -25 -25 -24 -23 -22 -22 -21 -20 -19 -19 -19 -18 -17 -17 -16 -16 -15 -16 -16 -13 -13 -13 -8
-25 -26 -26 -26 -27 -27 -27 -28 -28 -29 -29 -28 -27 -26 -26 -26 -25 -25 -25 -25 -25 -26 -25 -26 -25 -23 -22 -21 -20 -19 -19 -19 -19 -18 -18 -18 -17 -16 -16 -15 -16 -14 -14 -8
-26 -26 -27 -27 -27 -27 -27 -28 -28 -28 -29 -29 -28 -27 -26 -25 -25 -25 -25 -24 -25 -25 -25 -26 -25 -24 -23 -22 -21 -19 -19 -20 -20 -18 -19 -17 -17 -17 -17 -16 -17 -13 -13 -9
-26 -26 -27 -27 -27 -27 -27 -28 -28 -28 -28 -29 -29 -28 -26 -26 -26 -25 -25 -24 -24 -25 -26 -26 -24 -24 -23 -23 -22 -21 -19 -19 -19 -19 -19 -19 -17 -17 -17 -17 -17 -16 -11 -11
-26 -26 -27 -27 -27 -27 -27 -28 -29 -29 -28 -29 -29 -29 -27 -26 -26 -25 -25 -24 -26 -26 -24 -23 -24 -25 -25 -25 -25 -23 -22 -19 -19 -19 -19 -19 -19 -18 -18 -17 -17 -17 -13 -12
-26 -26 -27 -27 -27 -27 -27 -28 -29 -29 -29 -29 -29 -29 -28 -26 -26 -25 -25 -26 -26 -24 -23 -26 -25 -26 -25 -24 -25 -25 -24 -22 -21 -19 -20 -19 -19 -19 -18 -18 -16 -17 -15 -9
-26 -26 -27 -27 -27 -27 -27 -28 -28 -29 -28 -29 -28 -29 -28 -28 -27 -25 -26 -25 -24 -23 -27 -26 -26 -25 -25 -25 -25 -25 -25 -23 -22 -20 -21 -20 -18 -19 -19 -18 -17 -17 -16 -10
-26 -26 -27 -27 -27 -27 -27 -28 -28 -29 -28 -28 -28 -28 -28 -28 -27 -26 -25 -25 -25 -26 -26 -26 -26 -25 -25 -23 -24 -24 -24 -24 -24 -22 -21 -20 -18 -18 -19 -20 -18 -17 -16 -13
-26 -26 -27 -27 -27 -27 -27 -28 -29 -29 -28 -28 -28 -28 -27 -27 -26 -25 -25 -26 -25 -25 -26 -26 -25 -25 -24 -24 -23 -23 -24 -24 -25 -24 -23 -22 -19 -19 -18 -20 -19 -17 -17 -15
-26 -26 -26 -27 -27 -27 -27 -29 -30 -29 -29 -28 -29 -27 -27 -28 -27 -26 -26 -26 -26 -26 -25 -25 -25 -24 -25 -25 -23 -23 -25 -25 -24 -24 -24 -23 -20 -20 -19 -20 -18 -18 -18 -16
-26 -27 -26 -27 -27 -27 -28 -29 -30 -30 -29 -28 -28 -28 -27 -27 -27 -27 -26 -26 -26 -26 -25 -25 -25 -25 -25 -25 -25 -25 -25 -25 -25 -25 -25 -24 -21 -21 -22 -21 -18 -18 -19 -17
-26 -26 -26 -27 -27 -28 -29 -29 -30 -30 -30 -28 -28 -28 -27 -27 -27 -27 -26 -26 -25 -26 -26 -26 -26 -25 -26 -25 -26 -26 -25 -25 -25 -26 -25 -23 -21 -22 -21 -22 -19 -19 -19 -18
-26 -26 -26 -27 -27 -29 -29 -29 -29 -30 -29 -29 -28 -28 -28 -27 -27 -27 -26 -26 -26 -25 -26 -26 -26 -26 -26 -26 -26 -25 -25 -26 -27 -27 -24 -23 -22 -24 -24 -23 -20 -20 -20 -20
-26 -26 -26 -27 -28 -29 -29 -29 -29 -30 -30 -29 -28 -28 -28 -27 -27 -27 -27 -26 -26 -26 -26 -26 -26 -26 -26 -25 -26 -26 -26 -27 -27 -27 -26 -25 -24 -24 -24 -24 -23 -21 -21 -20
-27 -26 -26 -27 -28 -29 -29 -29 -29 -29 -29 -28 -29 -29 -28 -28 -28 -27 -27 -27 -27 -26 -27 -26 -26 -26 -26 -26 -26 -26 -26 -27 -27 -26 -26 -26 -25 -25 -24 -23 -23 -22 -22 -20
-27 -26 -26 -27 -28 -29 -29 -29 -29 -29 -29 -29 -29 -29 -29 -29 -28 -28 -28 -27 -27 -27 -27 -26 -26 -27 -27 -26 -26 -26 -27 -27 -26 -26 -26 -26 -25 -24 -24 -23 -23 -22 -22 -21
-27 -26 -27 -27 -29 -29 -29 -29 -29 -29 -29 -29 -29 -29 -29 -29 -29 -29 -28 -28 -27 -27 -27 -26 -26 -27 -27 -26 -25 -26 -27 -27 -26 -26 -26 -24 -24 -23 -24 -23 -22 -22 -22 -22
-27 -27 -27 -28 -29 -29 -29 -29 -29 -29 -29 -29 -29 -29 -30 -29 -29 -29 -28 -28 -27 -27 -27 -26 -27 -27 -27 -26 -27 -27 -27 -26 -25 -25 -24 -24 -23 -23 -23 -23 -23 -23 -23 -21
-27 -27 -27 -28 -29 -29 -29 -29 -29 -29 -29 -29 -29 -29 -29 -29 -29 -29 -28 -28 -28 -27 -27 -27 -27 -27 -26 -27 -26 -26 -26 -26 -26 -25 -25 -24 -23 -23 -24 -24 -24 -23 -22 -22
-27 -27 -27 -28 -29 -29 -29 -29 -29 -29 -29 -29 -29 -29 -29 -29 -29 -28 -28 -28 -28 -27 -27 -27 -26 -27 -27 -26 -26 -25 -25 -25 -25 -25 -25 -25 -24 -24 -24 -23 -22 -22 -22 -21
-27 -27 -27 -28 -29 -29 -29 -29 -29 -29 -29 -29 -29 -29 -29 -29 -28 -28 -27 -27 -27 -27 -27 -27 -27 -27 -26 -26 -26 -26 -25 -25 -25 -26 -26 -26 -25 -25 -24 -23 -22 -21 -21 -21
-28 -27 -27 -28 -29 -29 -29 -29 -29 -29 -28 -28 -28 -28 -28 -28 -28 -28 -27 -27 -27 -27 -27 -27 -27 -26 -26 -26 -26 -26 -25 -25 -25 -26 -26 -26 -26 -25 -24 -24 -22 -22 -21 -21
-28 -27 -27 -28 -29 -29 -29 -30 -29 -29 -28 -29 -29 -28 -28 -28 -28 -28 -28 -27 -27 -27 -28 -28 -27 -27 -26 -26 -26 -26 -25 -25 -26 -26 -27 -27 -27 -25 -24 -24 -23 -22 -21 -20
-28 -28 -27 -28 -29 -29 -30 -30 -30 -30 -29 -29 -29 -29 -29 -29 -28 -28 -27 -28 -28 -28 -28 -28 -27 -27 -26 -26 -26 -26 -25 -25 -25 -26 -26 -26 -26 -24 -23 -23 -23 -22 -22 -21
-28 -28 -28 -28 -28 -29 -30 -30 -30 -30 -30 -30 -29 -29 -29 -29 -29 -29 -28 -28 -28 -28 -29 -28 -27 -27 -27 -26 -26 -26 -26 -25 -25 -25 -26 -26 -26 -25 -24 -23 -23 -22 -21 -21
-28 -28 -28 -28 -28 -29 -30 -30 -30 -30 -30 -30 -30 -30 -29 -29 -29 -29 -29 -29 -29 -29 -29 -28 -28 -27 -27 -26 -26 -26 -26 -25 -25 -25 -25 -25 -24 -24 -24 -24 -23 -23 -22 -22
-28 -28 -28 -28 -28 -28 -29 -30 -31 -31 -31 -31 -30 -30 -30 -30 -30 -30 -30 -29 -29 -29 -29 -29 -28 -28 -27 -26 -26 -26 -26 -26 -25 -25 -25 -25 -24 -23 -24 -23 -23 -23 -23 -22
Height
5458 5453 5448 5442 5436 5430 5426 5426 5428 5429 5428 5431 5433 5445 5448 5451 5452 5456 5459 5462 5466 5469 5471 5474 5479 5493 5507 5515 5521 5529 5538 5542 5547 5556 5566 5572 5577 5584 5588 5595 5607 5612 5620 5621
5450 5445 5440 5435 5429 5422 5420 5418 5422 5422 5422 5423 5428 5434 5438 5441 5444 5446 5451 5455 5459 5461 5463 5463 5471 5480 5499 5502 5510 5514 5521 5525 5534 5541 5549 5554 5556 5566 5573 5585 5592 5598 5610 5612
5442 5438 5432 5428 5422 5415 5411 5410 5414 5416 5415 5416 5419 5423 5427 5433 5437 5439 5443 5447 5452 5454 5454 5457 5461 5472 5482 5490 5495 5502 5502 5508 5516 5525 5535 5534 5541 5553 5559 5565 5568 5585 5590 5606
5434 5429 5425 5420 5415 5408 5404 5403 5405 5406 5406 5408 5408 5411 5419 5421 5426 5428 5434 5440 5442 5441 5441 5446 5457 5468 5475 5477 5481 5482 5484 5489 5494 5495 5504 5514 5523 5529 5539 5543 5554 5561 5582 5587
5427 5422 5417 5412 5407 5401 5397 5394 5394 5394 5396 5397 5397 5399 5405 5409 5415 5420 5428 5429 5429 5431 5440 5452 5454 5449 5449 5452 5456 5460 5462 5470 5471 5475 5490 5493 5502 5513 5522 5530 5536 5547 5562 5568
5419 5414 5409 5405 5399 5392 5390 5388 5384 5380 5388 5386 5388 5392 5396 5401 5405 5413 5417 5418 5420 5433 5445 5430 5434 5432 5439 5446 5445 5446 5448 5458 5461 5467 5475 5474 5480 5504 5510 5518 5528 5535 5538 5567
5411 5406 5402 5397 5391 5385 5380 5380 5374 5370 5374 5375 5380 5384 5387 5390 5397 5400 5406 5410 5416 5431 5412 5418 5419 5423 5427 5430 5435 5439 5442 5445 5447 5458 5455 5450 5485 5488 5496 5504 5514 5517 5526 5547
5402 5398 5393 5389 5383 5376 5370 5369 5364 5360 5361 5366 5372 5376 5377 5381 5388 5391 5396 5404 5406 5404 5404 5403 5405 5412 5412 5423 5424 5429 5435 5439 5437 5435 5438 5448 5466 5478 5487 5489 5496 5503 5514 5532
5394 5389 5385 5380 5375 5368 5361 5360 5354 5351 5349 5363 5364 5366 5370 5375 5378 5383 5387 5389 5391 5393 5390 5387 5389 5396 5404 5405 5412 5417 5421 5423 5421 5425 5422 5420 5455 5476 5474 5472 5455 5494 5501 5515
5385 5381 5376 5371 5366 5359 5352 5351 5344 5342 5342 5353 5355 5360 5362 5365 5369 5370 5375 5376 5378 5378 5376 5376 5378 5383 5392 5391 5399 5406 5403 5406 5406 5411 5408 5409 5450 5459 5458 5435 5471 5492 5483 5494
5377 5373 5367 5362 5356 5350 5344 5345 5340 5338 5338 5345 5348 5352 5355 5359 5360 5361 5365 5365 5366 5367 5366 5368 5370 5371 5377 5381 5387 5392 5392 5392 5395 5396 5393 5393 5446 5436 5423 5435 5469 5460 5457 5474
5369 5364 5359 5353 5347 5341 5338 5341 5337 5337 5334 5340 5341 5344 5347 5349 5351 5353 5356 5356 5357 5357 5358 5358 5361 5364 5369 5375 5374 5380 5379 5381 5383 5379 5382 5399 5420 5409 5417 5421 5440 5439 5443 5451
5361 5356 5351 5345 5339 5334 5333 5334 5333 5332 5332 5333 5336 5339 5340 5341 5344 5345 5346 5348 5349 5350 5350 5351 5353 5354 5360 5361 5366 5368 5369 5369 5366 5367 5373 5381 5396 5392 5395 5404 5414 5419 5422 5427
5353 5348 5343 5337 5332 5329 5328 5327 5327 5328 5329 5329 5333 5333 5334 5336 5336 5338 5339 5339 5342 5343 5344 5344 5345 5348 5350 5353 5354 5353 5357 5356 5357 5354 5360 5369 5373 5384 5385 5382 5388 5396 5403 5413
5345 5341 5335 5330 5325 5323 5323 5323 5325 5325 5327 5327 5327 5328 5329 5329 5329 5331 5332 5332 5334 5336 5337 5338 5339 5340 5342 5342 5341 5342 5346 5347 5345 5346 5356 5352 5360 5364 5369 5374 5382 5386 5385 5394
5339 5334 5328 5323 5320 5318 5319 5320 5322 5322 5321 5321 5322 5322 5322 5322 5322 5323 5325 5326 5327 5328 5331 5332 5332 5334 5333 5329 5329 5337 5336 5337 5337 5337 5341 5339 5345 5349 5357 5362 5367 5368 5363 5366
5332 5327 5322 5317 5314 5314 5315 5316 5317 5317 5316 5316 5316 5315 5313 5312 5313 5315 5318 5319 5320 5322 5324 5325 5326 5327 5323 5319 5319 5329 5329 5328 5328 5326 5324 5329 5334 5337 5340 5344 5347 5346 5347 5354
5326 5321 5316 5312 5309 5309 5310 5310 5312 5312 5312 5312 5312 5311 5309 5308 5309 5310 5312 5313 5314 5317 5318 5318 5317 5317 5315 5308 5320 5316 5315 5312 5311 5313 5314 5315 5319 5323 5326 5330 5328 5327 5335 5341
5321 5316 5311 5307 5305 5304 5305 5306 5307 5308 5309 5308 5308 5307 5306 5306 5306 5306 5307 5307 5308 5308 5310 5312 5311 5311 5309 5306 5302 5300 5301 5299 5300 5302 5302 5303 5303 5309 5315 5317 5316 5319 5325 5333
5315 5311 5306 5302 5300 5299 5300 5300 5302 5302 5303 5303 5304 5304 5303 5303 5302 5301 5302 5302 5302 5302 5306 5303 5302 5303 5298 5294 5291 5290 5289 5288 5288 5289 5292 5291 5291 5294 5300 5304 5306 5311 5316 5325
5310 5306 5302 5298 5295 5295 5295 5295 5296 5298 5298 5299 5300 5299 5299 5298 5298 5297 5297 5296 5297 5296 5299 5295 5294 5293 5289 5287 5284 5281 5279 5278 5276 5274 5274 5274 5278 5283 5286 5293 5299 5303 5313 5319
5305 5302 5298 5294 5291 5290 5291 5291 5292 5292 5294 5294 5295 5295 5294 5294 5293 5293 5294 5293 5291 5290 5289 5288 5286 5284 5281 5278 5276 5273 5270 5268 5265 5263 5263 5263 5269 5274 5279 5282 5291 5298 5303 5313
5299 5297 5294 5291 5288 5286 5286 5286 5286 5288 5289 5289 5290 5291 5290 5289 5289 5288 5286 5285 5285 5284 5283 5281 5280 5278 5274 5271 5269 5265 5263 5261 5258 5258 5259 5260 5264 5270 5275 5280 5290 5295 5298 5307
5294 5292 5289 5286 5284 5282 5282 5282 5283 5283 5284 5284 5285 5284 5285 5285 5285 5283 5283 5282 5281 5279 5277 5276 5274 5272 5270 5266 5263 5260 5258 5256 5252 5255 5255 5257 5259 5265 5268 5277 5281 5284 5290 5298
5288 5287 5285 5283 5280 5278 5278 5278 5278 5278 5278 5279 5279 5279 5280 5279 5279 5279 5278 5278 5277 5275 5273 5271 5270 5268 5267 5264 5261 5258 5256 5254 5252 5254 5254 5256 5259 5263 5270 5275 5279 5283 5288 5296
5283 5282 5281 5278 5276 5274 5274 5273 5273 5273 5273 5273 5273 5274 5274 5274 5275 5275 5274 5274 5273 5273 5271 5269 5267 5266 5264 5262 5259 5258 5256 5254 5253 5254 5256 5259 5262 5264 5269 5274 5278 5283 5290 5296
5277 5276 5275 5274 5272 5271 5269 5269 5269 5269 5269 5269 5268 5268 5269 5269 5270 5271 5270 5270 5270 5269 5268 5266 5265 5263 5262 5260 5258 5257 5256 5255 5255 5255 5255 5258 5260 5265 5270 5272 5276 5282 5289 5297
Wind_Speed
41 36 33 34 33 32 33 28 22 22 26 29 36 31 31 27 27 24 22 19 20 27 33 44 53 57 41 26 53 53 46 55 52 54 58 62 70 70 67 69 70 66 61 53
40 37 32 34 33 33 31 29 24 24 26 28 31 38 34 33 30 28 26 24 21 24 29 36 38 50 50 47 42 42 47 56 52 54 55 56 57 65 66 68 61 64 62 57
40 38 32 33 34 35 33 31 25 23 27 27 30 37 41 36 34 31 29 25 23 24 30 34 36 38 45 56 58 49 50 50 52 53 56 55 65 63 55 60 65 70 69 60
39 38 33 33 34 36 35 32 25 25 25 24 29 35 41 42 38 37 33 28 29 32 35 33 29 25 30 44 56 65 59 54 62 47 58 68 43 53 48 53 58 66 72 70
38 37 34 33 35 36 35 33 27 30 25 25 28 34 41 44 42 42 37 37 35 37 33 24 26 34 41 42 51 67 77 71 67 76 62 53 66 59 58 62 58 59 72 77
37 37 34 34 36 37 36 32 31 33 26 27 30 30 34 40 43 43 40 37 39 32 19 37 38 41 42 44 49 56 70 77 87 70 63 66 58 66 72 60 55 57 65 76
37 36 33 35 36 38 38 33 34 36 30 30 27 28 33 34 36 43 37 38 39 24 42 41 43 46 48 51 52 53 58 73 79 81 91 91 61 56 51 73 71 60 65 80
36 35 33 36 37 38 40 36 36 35 34 31 24 22 28 31 32 38 41 40 43 42 45 48 48 49 55 50 55 56 55 58 69 84 83 84 89 71 56 58 69 70 74 80
36 34 34 36 37 39 41 35 35 34 35 21 24 26 26 27 31 36 37 33 35 35 42 48 55 59 56 58 57 58 60 60 64 67 78 98 88 80 76 72 73 69 62 64
35 33 35 35 37 39 40 27 28 29 31 18 21 23 25 29 29 32 29 32 32 40 47 48 54 60 58 60 59 61 60 63 67 67 69 72 74 81 79 91 62 55 76 68
34 33 35 35 38 37 34 16 19 23 26 14 20 22 25 24 23 25 24 28 34 39 45 50 55 58 59 58 53 49 50 51 56 66 73 78 48 79 90 84 59 61 54 72
33 33 34 36 36 32 24 12 17 18 25 14 19 21 21 24 21 25 25 31 37 36 44 49 53 54 50 50 51 50 53 52 50 54 56 65 52 67 76 75 81 67 53 56
32 33 33 35 33 23 19 13 15 17 19 20 17 17 20 26 25 23 26 30 35 42 40 43 44 51 49 49 50 49 53 52 53 52 51 54 62 66 62 56 80 82 73 65
32 32 33 34 28 18 17 13 13 13 18 20 13 16 17 21 26 26 25 31 32 35 38 39 42 45 44 44 41 44 45 46 46 47 46 44 53 53 55 56 53 67 75 83
31 31 32 31 23 16 14 13 11 12 19 15 12 15 16 18 24 28 26 28 31 32 31 33 35 37 37 35 38 37 32 32 41 40 33 42 39 46 49 55 55 55 61 86
30 30 31 28 19 14 12 14 10 12 14 16 17 20 21 22 22 26 19 23 25 27 29 30 32 32 33 37 37 27 28 30 32 35 33 38 42 43 44 47 52 53 56 67
28 29 30 24 16 13 13 13 13 12 15 16 18 16 20 21 21 26 20 22 23 25 26 25 25 27 33 35 35 27 30 32 34 36 39 39 41 45 46 50 53 59 59 53
27 27 28 22 16 14 13 14 13 13 14 13 8 9 9 10 13 17 19 21 24 25 24 29 35 36 37 42 30 30 30 33 38 40 44 46 48 49 49 49 53 52 51 50
25 26 26 20 15 13 14 18 15 15 15 14 9 11 9 9 9 14 21 24 26 29 29 27 28 28 31 31 31 32 31 35 35 34 38 43 50 51 45 39 42 38 38 46
24 24 24 19 14 14 14 16 18 15 17 18 15 16 17 16 17 19 20 26 27 25 19 25 27 24 24 25 26 25 27 31 36 38 38 40 42 42 45 33 42 29 33 44
22 22 22 19 14 13 13 12 14 16 17 17 19 18 17 17 13 12 18 23 22 24 23 25 22 19 22 22 20 23 30 35 38 38 35 40 38 36 41 31 38 25 32 44
20 21 21 18 13 14 15 12 13 17 19 18 17 19 20 18 15 14 16 20 24 25 24 22 17 18 20 21 21 22 28 29 30 29 24 24 28 28 26 29 48 34 37 34
18 19 19 18 14 12 14 12 14 15 16 19 18 19 21 20 20 19 21 23 25 24 22 21 18 17 19 19 20 20 19 22 25 22 20 21 28 25 29 27 28 20 33 31
17 18 18 18 14 10 13 15 16 17 17 17 17 17 16 17 17 21 20 20 23 21 21 20 20 19 18 19 19 16 17 20 21 19 16 17 24 37 41 21 15 14 11 22
18 16 16 16 13 11 12 13 16 17 18 18 18 17 17 15 15 16 18 18 17 19 19 22 21 21 17 18 14 12 13 15 9 10 11 14 16 18 22 12 13 12 15 27
18 13 15 15 13 12 12 11 11 14 15 16 16 15 16 17 17 14 15 16 17 18 22 22 21 20 17 15 11 8 11 4 8 11 5 12 10 17 18 19 14 11 10 10
16 14 14 12 12 12 12 12 12 13 15 15 15 15 14 16 15 14 13 13 13 15 17 17 17 17 14 11 9 6 9 6 8 12 12 7 7 20 23 18 13 17 21 21
Wind_Direction
318 319 318 317 313 307 298 279 268 263 265 256 247 236 242 244 251 253 247 246 249 242 232 227 226 223 212 240 241 236 231 243 237 237 241 245 245 243 246 247 246 247 252 241
317 317 316 316 314 309 304 283 265 262 264 267 254 237 238 239 242 247 242 240 235 229 233 240 234 226 214 209 224 239 242 239 239 236 240 243 238 240 243 245 248 248 247 239
317 317 314 315 313 308 306 295 271 260 267 264 252 239 233 237 242 241 245 242 241 241 242 241 235 231 222 221 222 223 222 227 222 242 241 239 244 241 238 244 243 244 245 240
316 316 313 313 312 306 308 302 282 266 265 254 240 232 228 233 237 242 242 242 247 244 240 236 247 242 236 226 223 219 216 208 205 209 220 225 225 230 237 249 249 247 242 244
316 314 311 312 310 306 308 304 285 260 261 253 235 231 224 228 233 238 239 242 248 250 247 253 243 237 231 219 220 222 227 219 217 219 221 224 224 221 229 229 239 246 242 239
315 313 311 310 309 307 307 302 290 270 254 251 239 227 228 228 233 235 241 249 254 250 253 255 251 252 242 232 228 226 229 223 232 225 228 225 223 226 228 228 232 242 241 234
315 313 311 310 308 307 305 302 290 276 266 258 254 249 240 236 234 237 240 249 254 245 264 258 254 248 248 243 238 236 233 232 230 231 234 236 218 220 229 231 227 228 237 237
314 312 311 310 308 306 304 301 292 281 267 257 259 255 239 236 235 238 245 245 252 257 258 258 252 249 249 247 245 242 241 239 238 235 230 230 228 223 229 241 231 236 240 241
314 313 312 310 309 306 304 300 288 279 272 251 256 250 246 238 247 243 252 259 255 253 258 250 247 244 246 243 243 243 242 241 242 244 242 238 228 230 239 235 241 230 231 239
314 313 312 311 309 307 304 299 280 274 270 240 256 258 238 248 256 255 254 258 259 244 246 253 247 242 239 246 251 244 247 246 246 246 251 254 235 228 232 237 233 222 225 225
314 314 313 311 310 307 301 287 279 276 278 274 262 252 247 246 254 259 267 250 225 227 241 249 244 237 235 240 249 250 252 255 256 254 253 251 245 233 240 244 218 216 220 222
315 315 314 312 312 305 290 280 264 261 268 268 250 247 253 248 262 265 250 242 227 224 229 235 234 234 236 241 245 248 250 254 260 264 262 254 240 248 248 254 227 224 217 218
316 316 314 314 312 293 283 280 266 254 261 260 253 251 255 252 260 261 264 250 236 228 229 233 236 236 238 246 253 254 254 254 258 264 261 252 238 246 252 256 245 235 237 232
316 317 315 316 309 280 274 271 242 233 261 270 266 262 258 256 256 258 258 247 240 237 239 243 244 246 251 259 265 263 260 259 259 259 259 256 243 245 250 251 253 249 250 245
318 317 316 318 303 272 261 247 234 247 264 270 266 267 270 260 251 250 245 240 238 239 243 248 255 260 263 266 267 267 266 263 258 264 261 252 240 241 243 247 257 260 256 245
319 316 319 317 294 270 252 239 243 248 269 282 280 279 276 269 259 238 241 239 233 234 242 252 254 257 259 261 262 262 254 254 258 260 252 248 244 246 248 251 250 252 253 243
318 317 322 316 281 265 240 230 253 273 277 286 289 286 279 267 256 240 244 250 233 229 238 245 251 250 253 266 273 270 269 267 259 260 258 252 250 250 251 252 254 255 250 242
318 319 322 315 272 264 246 245 255 269 272 290 301 293 285 277 272 254 249 240 229 230 239 246 245 250 262 270 294 282 268 261 256 253 255 256 252 250 250 253 260 251 239 231
317 320 323 314 274 260 248 247 248 258 266 265 261 302 307 294 292 266 250 240 233 236 248 263 265 272 282 295 280 270 262 263 262 260 260 256 255 254 255 259 241 221 222 222
316 320 324 314 277 260 269 254 243 254 258 265 266 284 294 287 287 281 268 243 245 266 268 280 286 299 291 286 283 281 278 274 274 269 266 265 255 249 244 251 219 197 208 221
314 318 322 314 285 263 272 261 251 254 262 267 276 286 297 297 287 269 260 270 270 280 289 291 299 290 286 295 295 277 276 279 278 283 270 251 245 243 241 237 201 186 197 222
310 314 319 317 294 267 271 271 258 257 262 271 277 284 293 298 300 291 276 275 280 291 299 305 308 297 298 294 293 275 266 277 282 282 268 242 234 234 231 225 206 205 204 190
304 310 314 316 307 284 268 274 272 267 273 276 276 276 282 289 293 297 294 293 294 297 303 309 315 321 308 296 299 286 267 281 271 268 264 249 239 198 200 195 195 195 210 214
292 300 309 311 308 297 270 263 266 274 276 275 278 283 283 275 279 283 286 286 290 298 304 310 317 318 312 304 306 294 273 278 279 264 270 246 207 187 195 196 179 143 154 181
280 292 300 310 306 298 286 275 268 271 275 275 275 277 278 278 279 285 287 289 291 293 296 309 316 319 321 310 310 294 278 292 258 268 242 193 198 210 193 179 161 131 150 183
273 284 289 298 301 298 290 284 281 272 276 281 280 269 266 264 270 277 280 281 281 280 291 303 310 309 318 308 314 284 276 274 241 276 272 205 218 195 214 223 235 218 188 170
265 262 274 284 292 295 288 278 275 274 283 290 281 261 247 254 259 262 269 278 286 287 294 304 311 309 316 295 305 278 278 268 245 272 272 213 196 195 214 229 190 199 190 194